sat.trackr.live / text

‹ back to catalog

STARLINK-5331

NORAD 55280 · 2023-010M

PAYLOAD ACTIVE UNKNOWN

§ Identity

Operator
Country
US
Launch date
2023-01-19
Launch site
AFWTR
Launch vehicle
Mass (kg)
RCS (m²)

Purposes: comms

External: N2YO · Heavens-Above · Gunter

§ Orbital elements

Epoch: 2026-09-20T22:00:03.000096Z

Period
95.56 min
Inclination
70.0000°
Eccentricity
0.0002648
Mean motion
15.06886961 rev/d
Perigee alt
543.9 km
Apogee alt
547.6 km
Semi-major
6,923.9 km
B*
7.5014e-3
RAAN
272.2808°
Arg perigee
251.5397°
Mean anomaly
243.7489°
Rev number
567

§ Raw data

STARLINK-53311 55280U 23010M   26263.91670139  .00113930  00000+0  75014-2 0  99962 55280  70.0000 272.2808 0002648 251.5397 243.7489 15.06886961  5675

JSON: /api/v1/satellites/55280 · /tle

For live sub-satellite position, see the globe view (requires WebGL).

§ Visibility from observer

Set your observer location to see the next 7 days of passes ≥ 10°. The values pass through the URL so the page stays shareable.

No JS? Fill the form by hand. The geolocation button needs JavaScript.